Flag for Austria Weather past 2 weeks in Mödling, Lower Austria, Austria

Now
79 °F

Passing clouds.


Feels Like: 81 °F
Forecast: 63 / 94 °F
Wind: 8 mph from Northeast

Location: Vienna Schwechat-Flughafen Airport

Current Time: Jul 7, 2015 at 12:38:19 AM

Latest Report: Jul 6, 2015 at 11:50 PM


Visibility: N/A

Pressure: 30.07 "Hg

Humidity: 61%

Dew point: 64 °F

Location of MödlingLocation

Historic Weather in Mödling — Graph

°F

Mödling temperature yesterday

Maximum temperature yesterday: 93 °F (at 3:50 PM)
Minimum temperature yesterday: 64 °F (at 4:50 AM)
Average temperature yesterday: 81 °F

Past Weeks' High & Low Weather Summary

 TemperatureHumidityPressure
High93 °F (Jul 5, 2:50 PM)100% (Jun 22, 11:20 PM)30.33 "Hg (Jun 22, 11:20 PM)
Low48 °F (Jun 25, 4:50 AM)23% (Jul 5, 3:20 PM)29.77 "Hg (Jun 23, 3:50 AM)
Average70 °F59%30.11 "Hg
* Reported Jun 21 10:20 PM — Jul 6 10:50 PM, Mödling, Weather by CustomWeather, © 2015

Note: Actual official high and low records may vary slightly from our data, if they occured in-between our weather recording intervals... More about our weather records

Advertising

Mödling weather history for previous 24 hours

 ConditionsComfort  
Time TempWeatherWind HumidityBarometerVisibility
10:50 PM
Mon, Jul 6
82 °FClear.8 mph51%30.07 "Hg10 mi
10:20 PM84 °FClear.10 mph48%30.07 "Hg10 mi
9:50 PM84 °FSunny.12 mph48%30.07 "Hg10 mi
9:20 PM86 °FSunny.9 mph49%30.04 "Hg10 mi
8:50 PM86 °FSunny.9 mph49%30.04 "Hg10 mi
8:20 PM88 °FSunny.10 mph43%30.04 "Hg10 mi
7:50 PM90 °FSunny.13 mph41%30.04 "Hg10 mi
7:20 PM91 °FSunny.14 mph38%30.04 "Hg10 mi
6:50 PM91 °FSunny.14 mph38%30.04 "Hg10 mi
6:20 PM91 °FPassing clouds.10 mph41%30.04 "HgN/A
5:50 PM91 °FPassing clouds.13 mph41%30.04 "HgN/A
5:20 PM93 °FSunny.14 mph39%30.04 "Hg10 mi
4:50 PM93 °FScattered clouds.13 mph39%30.04 "HgN/A
4:20 PM93 °FScattered clouds.17 mph36%30.04 "HgN/A
3:50 PM93 °FBroken clouds.14 mph39%30.04 "HgN/A
3:20 PM90 °FBroken clouds.15 mph43%30.04 "HgN/A
2:50 PM90 °FBroken clouds.16 mph43%30.04 "HgN/A
2:20 PM90 °FPartly sunny.17 mph43%30.04 "HgN/A
1:50 PM90 °FPassing clouds.20 mph41%30.04 "HgN/A
1:20 PM91 °FSunny.21 mph38%30.04 "Hg10 mi
12:50 PM90 °FSunny.24 mph41%30.04 "Hg10 mi
12:20 PM90 °FSunny.23 mph38%30.04 "Hg10 mi
11:50 AM90 °FPassing clouds.20 mph41%30.04 "HgN/A
11:20 AM84 °FBroken clouds.16 mph51%30.04 "HgN/A
10:50 AM84 °FBroken clouds.18 mph51%30.07 "HgN/A
10:20 AM86 °FBroken clouds.18 mph46%30.07 "HgN/A
9:50 AM88 °FBroken clouds.21 mph43%30.07 "HgN/A
9:20 AM86 °FBroken clouds.9 mph43%30.04 "HgN/A
8:50 AM81 °FScattered clouds.5 mph48%30.04 "HgN/A
8:20 AM79 °FScattered clouds.5 mph51%30.04 "HgN/A
7:50 AM75 °FScattered clouds.3 mph61%30.04 "HgN/A
7:20 AM72 °FPassing clouds.3 mph69%30.01 "HgN/A
6:50 AM70 °FSunny.6 mph73%30.01 "Hg10 mi
6:20 AM68 °FSunny.3 mph78%30.01 "Hg10 mi
5:50 AM68 °FPassing clouds.3 mph73%29.98 "HgN/A
5:20 AM64 °FClear.3 mph83%29.98 "Hg10 mi
4:50 AM64 °FClear.2 mph78%29.98 "Hg10 mi
4:20 AM66 °FClear.1 mph73%29.98 "Hg10 mi
3:50 AM66 °FClear.3 mph73%30.01 "Hg10 mi
3:20 AM68 °FClear.2 mph69%29.98 "Hg10 mi
2:50 AM70 °FClear.2 mph64%29.98 "Hg10 mi
2:20 AM68 °FClear.8 mph69%29.98 "Hg10 mi
1:50 AM68 °FClear.8 mph69%30.01 "Hg10 mi
1:20 AM68 °FClear.8 mph69%29.98 "Hg10 mi
12:50 AM70 °FPassing clouds.7 mph64%30.01 "HgN/A
12:20 AM73 °FClear.8 mph57%30.01 "Hg10 mi
Weather by CustomWeather, © 2015

See weather overviewHow to use our weather pages